[[{"header":{"parameterUnit":"m.s-1","parameterCategory":1,"la1":30.2991,"la2":30.254,"lo1":-89.0895,"lo2":-89.0444,"dy":0.0017,"dx":0.0017,"nx":28,"ny":28,"refTime":"2025-05-23T21:00:00:Z","depth":0,"parameterNumber":2,"parameterNumberName":"U-component_of_WINDS"},"data":[0,0,0,0,0,0,0,0,0,0,0,0,0,0,0,0,0,0,0,0,0,0,0,0,0,0,0,0,0,0,0,0,0,0,0,0,0,0,0,0,0,0,0,0,0,0,0,0,0,0,0,0,0,0,0,0,0,0,1.6022,1.6022,0,1.6108,1.6109,1.611,1.6112,1.6111,1.611,1.6109,1.6199,1.6202,1.6205,0,0,0,0,0,0,0,0,0,0,0,0,0,1.5859,1.5862,1.6021,1.6022,1.6024,1.6108,1.6109,1.611,1.6112,1.6111,1.611,1.6109,1.6198,1.6202,1.6206,0,0,0,0,0,0,0,0,0,0,0,0,0,1.5936,1.5863,1.6021,1.6035,1.6037,1.6108,1.6109,1.611,1.6113,1.6111,1.6109,1.6108,1.6196,1.6201,1.6206,1.6269,0,0,1.6222,1.6224,0,0,0,0,0,0,0,0,1.5931,1.5942,1.6032,1.6034,1.6036,1.6098,1.6084,1.6164,1.6113,1.6084,1.6109,1.6107,1.6166,1.6174,1.6194,1.6274,1.6277,1.6222,1.6225,1.6227,1.6229,0,0,0,0,0,0,0,1.5926,1.5938,1.6056,1.6033,1.6036,1.6037,1.6046,1.6099,1.6133,1.6086,1.6087,1.6097,1.6167,1.6189,1.6196,1.6279,1.6222,1.6226,1.623,1.6232,1.6414,1.6416,0,0,0,0,0,0,1.5918,1.5934,1.6053,1.6058,1.5979,1.6041,1.6051,1.608,1.6132,1.6139,1.6098,1.6097,1.6181,1.619,1.6199,1.6275,1.6227,1.6232,1.6235,1.6412,1.6414,1.6416,0,0,0,0,0,0,1.5914,1.5929,1.6049,1.5996,1.6011,1.6045,1.6077,1.6082,1.6103,1.6141,1.6147,1.6114,1.618,1.6192,1.6252,1.6279,1.6234,1.6239,1.641,1.6413,1.6415,1.643,0,0,0,0,0,0,1.591,1.5927,1.5951,1.5997,1.6014,1.61,1.6079,1.6085,1.6112,1.6111,1.6158,1.6164,1.618,1.6244,1.6257,1.6285,1.6243,1.6408,1.6411,1.6415,1.6427,1.6432,1.6437,0,0,0,0,0,1.5904,1.5952,1.5953,1.5967,1.6045,1.6102,1.6112,1.6129,1.6114,1.6139,1.6163,1.6162,1.6274,1.625,1.6264,1.6294,1.6406,1.641,1.6414,1.6424,1.6431,1.6437,0,0,0,0,0,0,1.591,1.5959,1.5959,1.6024,1.6059,1.6102,1.6134,1.6136,1.6176,1.6173,1.6193,1.6203,1.6263,1.6285,1.6257,1.6358,1.6338,1.6345,1.6341,1.6348,1.6353,1.6346,1.6247,0,0,0,0,0,1.5919,1.5961,1.6001,1.6054,1.6072,1.61,1.6125,1.6135,1.6172,1.6187,1.6216,1.6252,1.6295,1.6323,1.6365,1.643,1.644,1.6458,1.6463,1.6467,1.6473,1.6508,1.6517,1.643,1.643,1.643,0,0,1.5938,1.5969,1.5995,1.6056,1.6084,1.6127,1.6112,1.6158,1.619,1.6194,1.6252,1.6274,1.6316,1.6378,1.6408,1.6399,1.6499,1.6473,1.6476,1.6479,1.6513,1.6522,1.6529,1.6432,1.6432,1.6432,0,0,1.5993,1.6022,1.6069,1.6097,1.614,1.6158,1.6169,1.6213,1.6227,1.6286,1.6289,1.6328,1.6402,1.6431,1.6455,1.6522,1.6522,1.6535,1.6562,1.6596,1.6603,1.6609,1.6632,1.664,1.6541,1.6541,1.6541,0,1.6011,1.6076,1.6093,1.6139,1.6165,1.617,1.6218,1.6245,1.6299,1.6317,1.6307,1.6399,1.6428,1.6497,1.6513,1.6533,1.6546,1.6529,1.6601,1.6607,1.6613,1.6635,1.6643,1.6542,1.6542,1.6542,1.6542,0,1.6095,1.614,1.6172,1.6224,1.6254,1.6301,1.6325,1.6354,1.6361,1.6381,1.644,1.6474,1.6522,1.654,1.6548,1.661,1.6603,1.6597,1.6577,1.6622,1.6643,1.6651,1.6544,1.6543,1.6543,1.6543,0,0,1.6156,1.6217,1.6228,1.6251,1.6299,1.6333,1.638,1.6427,1.6451,1.6488,1.6528,1.659,1.6584,1.6612,1.6623,1.6653,1.6702,1.6643,1.6644,1.6652,1.6772,1.6776,1.6785,1.6703,1.6705,1.6706,1.6768,0,1.6216,1.6299,1.6315,1.6387,1.6428,1.6433,1.6474,1.6507,1.6527,1.6564,1.6586,1.663,1.6619,1.6636,1.6666,1.669,1.6727,1.6686,1.6739,1.6741,1.6728,1.6796,1.68,1.6857,1.6776,1.6778,1.6779,0,1.6297,1.6335,1.6411,1.6452,1.647,1.6506,1.655,1.6586,1.6624,1.6636,1.6667,1.6675,1.6723,1.6702,1.6769,1.6741,1.6764,1.6779,1.6782,1.6786,1.6762,1.6801,1.6875,1.6883,1.6792,1.6791,1.679,0,1.6332,1.6403,1.6457,1.6477,1.6527,1.6552,1.6574,1.661,1.6637,1.6676,1.6693,1.6738,1.6761,1.6795,1.6815,1.6798,1.688,1.6861,1.6891,1.689,1.6907,1.6905,1.6984,1.6924,1.6924,1.6924,1.6923,0,1.6397,1.6442,1.6474,1.6507,1.6558,1.6577,1.6627,1.6649,1.6681,1.6718,1.6727,1.6762,1.6786,1.6824,1.684,1.6892,1.6904,1.6914,1.6918,1.6913,1.6911,1.6927,1.6923,1.6926,1.6925,1.6925,1.6925,0,1.6444,1.6468,1.6526,1.6569,1.658,1.6616,1.6652,1.6684,1.6704,1.6751,1.6763,1.6794,1.684,1.6863,1.692,1.6931,1.6989,1.6991,1.6976,1.6977,1.7006,1.7002,1.7096,1.7109,1.7042,1.7042,1.7043,0,1.6483,1.6518,1.6564,1.6589,1.6612,1.6653,1.668,1.67,1.6728,1.6774,1.6801,1.6847,1.6884,1.6957,1.6984,1.7028,1.703,1.706,1.7036,1.703,1.7029,1.7026,1.7029,1.7064,1.7064,1.7065,1.7065,0,1.6549,1.6559,1.6598,1.6641,1.6673,1.6708,1.6742,1.6762,1.6788,1.6819,1.6866,1.6895,1.6953,1.6998,1.7043,1.7066,1.707,1.7073,1.7082,1.7076,1.7066,1.707,1.6986,1.707,1.707,1.7069,1.7069,1.7069,1.6593,1.6624,1.6661,1.6704,1.6732,1.6763,1.6795,1.6819,1.6858,1.6906,1.6916,1.6965,1.7002,1.7063,1.7087,1.7126,1.7119,1.7133,1.7136,1.7138,1.7139,1.7061,1.7134,1.7134,1.7134,1.7134,1.7134,0,1.6658,1.6682,1.6721,1.6769,1.6802,1.6803,1.6841,1.6869,1.6912,1.6946,1.6983,1.7036,1.7079,1.711,1.7155,1.718,1.7183,1.7191,1.7188,1.7193,1.7143,1.713,1.7188,1.7188,1.7188,1.7188,1.7188,1.7188,1.6696,1.6748,1.6762,1.6828,1.6852,1.6899,1.6921,1.695,1.6977,1.7036,1.7072,1.7092,1.7125,1.7171,1.7212,1.722,1.7235,1.7243,1.7251,1.7203,1.7197,1.7192,1.7179,1.7247,1.7247,1.7298,1.7298,1.7299]},{"header":{"parameterUnit":"m.s-1","parameterCategory":1,"la1":30.2991,"la2":30.254,"lo1":-89.0895,"lo2":-89.0444,"dy":0.0017,"dx":0.0017,"nx":28,"ny":28,"refTime":"2025-05-23T21:00:00:Z","depth":0,"parameterNumber":3,"parameterNumberName":"V-component_of_WINDS"},"data":[0,0,0,0,0,0,0,0,0,0,0,0,0,0,0,0,0,0,0,0,0,0,0,0,0,0,0,0,0,0,0,0,0,0,0,0,0,0,0,0,0,0,0,0,0,0,0,0,0,0,0,0,0,0,0,0,0,0,2.8376,2.8377,0,2.8466,2.8467,2.8468,2.8448,2.8447,2.8445,2.8443,2.8532,2.8535,2.8539,0,0,0,0,0,0,0,0,0,0,0,0,0,2.8185,2.8188,2.8376,2.8377,2.8379,2.8466,2.8467,2.8468,2.8449,2.8446,2.8444,2.8443,2.853,2.8535,2.854,0,0,0,0,0,0,0,0,0,0,0,0,0,2.827,2.819,2.8376,2.8379,2.838,2.8466,2.8467,2.8469,2.8449,2.8446,2.8444,2.8442,2.8529,2.8534,2.854,2.8627,0,0,2.8558,2.8561,0,0,0,0,0,0,0,0,2.8266,2.8277,2.8378,2.8379,2.8381,2.8443,2.8432,2.8521,2.845,2.8423,2.8443,2.844,2.8504,2.8512,2.8534,2.8631,2.8635,2.8559,2.8562,2.8565,2.8566,0,0,0,0,0,0,0,2.826,2.8274,2.8412,2.8379,2.8381,2.8375,2.8385,2.8449,2.8476,2.8425,2.8424,2.8435,2.8504,2.8528,2.8536,2.8636,2.8558,2.8564,2.8567,2.857,2.8808,2.881,0,0,0,0,0,0,2.8253,2.8269,2.8409,2.8414,2.8316,2.8381,2.8391,2.8426,2.8476,2.8481,2.8437,2.8434,2.852,2.8529,2.8539,2.8644,2.8565,2.857,2.8574,2.8805,2.8808,2.8811,0,0,0,0,0,0,2.8249,2.8266,2.8405,2.8341,2.8359,2.8387,2.8426,2.8429,2.8453,2.8485,2.8489,2.8457,2.8518,2.8531,2.8605,2.8646,2.8573,2.8578,2.8802,2.8806,2.881,2.8853,0,0,0,0,0,0,2.8244,2.8264,2.8298,2.8342,2.8362,2.8471,2.8428,2.8432,2.8464,2.846,2.8504,2.8509,2.8517,2.8597,2.8611,2.8653,2.8583,2.8798,2.8803,2.8808,2.8848,2.8859,2.8867,0,0,0,0,0,2.8237,2.8306,2.83,2.8317,2.8405,2.8474,2.8485,2.8493,2.8467,2.8501,2.8521,2.8508,2.8639,2.8604,2.862,2.8665,2.8795,2.8802,2.8808,2.8844,2.8857,2.8867,0,0,0,0,0,0,2.8265,2.8312,2.8306,2.8392,2.8429,2.847,2.8513,2.8506,2.8551,2.8546,2.8553,2.8563,2.8639,2.8659,2.8619,2.8751,2.8713,2.8723,2.8735,2.8747,2.8757,2.875,2.8588,0,0,0,0,0,2.8282,2.8334,2.8372,2.8444,2.8463,2.8485,2.8515,2.8519,2.8557,2.8572,2.8598,2.8635,2.8684,2.8717,2.8764,2.8851,2.886,2.8889,2.8899,2.8906,2.8915,2.8962,2.8976,2.8832,2.8832,2.8832,0,0,2.8316,2.8348,2.8381,2.8451,2.848,2.8533,2.8498,2.8556,2.8596,2.8581,2.8653,2.8673,2.8714,2.8796,2.8833,2.8815,2.8956,2.8914,2.892,2.8925,2.897,2.8984,2.8996,2.8836,2.8835,2.8835,0,0,2.8406,2.8436,2.8499,2.853,2.8575,2.8589,2.8604,2.8646,2.866,2.8733,2.8722,2.8768,2.8854,2.8884,2.891,2.9011,2.9001,2.9026,2.9076,2.9122,2.9133,2.9143,2.9179,2.9192,2.9035,2.9035,2.9035,0,2.8443,2.8524,2.8532,2.8592,2.8623,2.8612,2.8676,2.8705,2.8763,2.8784,2.8763,2.887,2.8897,2.8985,2.901,2.9031,2.9049,2.9022,2.9131,2.9141,2.9151,2.9185,2.9199,2.9038,2.9037,2.9037,2.9037,0,2.8567,2.8623,2.8669,2.8727,2.8762,2.8824,2.8841,2.8876,2.8876,2.8892,2.8966,2.8998,2.9052,2.9072,2.9073,2.9161,2.9148,2.9129,2.9092,2.9167,2.92,2.9213,2.9042,2.9041,2.904,2.9039,0,0,2.8678,2.874,2.8756,2.8782,2.8831,2.8874,2.8934,2.8988,2.9018,2.9058,2.9109,2.9181,2.9164,2.9194,2.9197,2.9237,2.9316,2.9213,2.9214,2.9232,2.9415,2.9429,2.9444,2.9309,2.9311,2.9313,2.9411,0,2.8773,2.8881,2.889,2.8987,2.9039,2.9029,2.9082,2.9117,2.9133,2.9178,2.9196,2.9247,2.9221,2.9239,2.9278,2.9298,2.9353,2.9291,2.9355,2.9357,2.9346,2.9461,2.9477,2.9568,2.9424,2.9426,2.9428,0,2.8898,2.8943,2.9045,2.9087,2.9109,2.9156,2.9206,2.925,2.9289,2.9298,2.9332,2.933,2.939,2.935,2.9434,2.9392,2.9419,2.9432,2.9436,2.9442,2.9398,2.9471,2.9597,2.9611,2.9448,2.9446,2.9445,0,2.8969,2.9055,2.9127,2.915,2.92,2.9234,2.9256,2.9293,2.9324,2.9367,2.9388,2.9437,2.9464,2.9502,2.9512,2.9482,2.9596,2.9556,2.9604,2.9604,2.9629,2.9628,2.9761,2.9646,2.9645,2.9645,2.9645,0,2.9074,2.9137,2.916,2.9205,2.9275,2.9284,2.9353,2.9373,2.9406,2.9453,2.9447,2.9492,2.9503,2.9549,2.9557,2.9626,2.9638,2.9646,2.9648,2.9647,2.9646,2.9665,2.9659,2.9649,2.9648,2.9647,2.9647,0,2.9166,2.9184,2.9262,2.9304,2.9316,2.9365,2.94,2.9443,2.9458,2.9518,2.9533,2.9556,2.961,2.9625,2.9689,2.9695,2.9775,2.977,2.9762,2.9762,2.981,2.9805,2.9961,2.9981,2.9852,2.9853,2.9854,0,2.9232,2.9281,2.9328,2.936,2.9384,2.9435,2.9468,2.9478,2.9512,2.9561,2.9597,2.9651,2.9694,2.9781,2.9803,2.9852,2.9849,2.99,2.9856,2.9854,2.985,2.9848,2.9852,2.9908,2.991,2.9911,2.9912,0,2.9348,2.9355,2.9403,2.9454,2.9493,2.9534,2.9572,2.9599,2.9614,2.9653,2.9709,2.9743,2.9809,2.9862,2.9912,2.9933,2.9925,2.9925,2.9939,2.9939,2.9933,2.9938,2.9786,2.9922,2.9921,2.992,2.992,2.9919,2.943,2.9472,2.9512,2.9566,2.9596,2.9632,2.9675,2.9695,2.9743,2.9798,2.9801,2.9862,2.9899,2.9965,2.999,3.0036,3.0021,3.0041,3.0046,3.0051,3.0055,2.9925,3.0045,3.0045,3.0045,3.0045,3.0044,0,2.9545,2.9571,2.962,2.9675,2.9717,2.9707,2.9749,2.9784,2.9838,2.9874,2.9918,2.9982,3.0033,3.006,3.011,3.0143,3.014,3.0156,3.0154,3.0159,3.0066,3.0049,3.0157,3.0157,3.0157,3.0157,3.0157,3.0157,2.9611,2.9683,2.9694,2.978,2.9805,2.9865,2.989,2.9924,2.9952,3.0025,3.0068,3.0085,3.0117,3.017,3.0217,3.0223,3.0242,3.026,3.0264,3.0177,3.0165,3.0154,3.0139,3.0264,3.0264,3.0353,3.0354,3.0355]}]]